Regional Weather Roundup
Issued by NWS Goodland, KS

Home | Current Version | Previous Version | Graphics & Text | Print | Product List | Glossary On
Versions: 1 2 3 4 5 6 7 8 9 10 11 12 13 14 15 16 17 18 19 20 21 22 23 24 25 26 27 28 29 30 31 32 33 34 35 36 37 38 39 40 41 42 43 44 45 46 47 48 49 50
000
ASUS43 KGLD 231108
RWRGLD

GOODLAND FORECAST AREA HOURLY WEATHER ROUNDUP
NATIONAL WEATHER SERVICE GOODLAND KS
400 AM MST SUN NOV 23 2014

...OFFICIAL OBSERVATIONS...

CITY           SKY/WX    TMP DP  RH WIND       PRES   REMARKS
GOODLAND KS    PTCLDY    47  31  53 N25G38    29.53R
HILL CITY KS   CLOUDY    49  46  90 NW6       29.46R
IMPERIAL NEB   CLOUDY    43  25  49 N20G28    29.58R
MCCOOK NEB     CLOUDY    51  31  46 NW24G31   29.50R
AKRON CO       CLOUDY    37  24  59 N25G36    29.65R
BURLINGTON CO  MOCLDY    45  28  51 N25G35    29.54R
LIMON CO       LGT SNOW  36  27  69 N31G37    29.66R
$$

...UNOFFICIAL OBSERVATIONS...

CITY           SKY/WX    TMP DP  RH WIND       PRES   REMARKS
COLBY KS       CLEAR     48  36  61 NW23G30   29.51R
GOVE KS          N/A     46  32  58 MISG        N/A
NORTON KS      CLEAR     39  36  87 W7        29.46S FOG
SHARON SPRINGS   N/A     48  30  50 N22G30      N/A
TRIBUNE KS     CLOUDY    50  30  46 N23       29.49R
TRENTON NEB      N/A     47  32  56 NW23G30     N/A
YUMA CO          N/A     40  27  59 N21         N/A
$$


USA.gov is the U.S. government's official web portal to all federal, state and local government web resources and services.